Location: Newark
(55.7816°N, 8.2389°E)
Time: 04:13:31
(UTC+00:00)

LilacSat-2 - Pass Details

Date: 23 February 2020
Orbit: 514 x 534 km, 97.5° (Epoch: 04 April)

Event Time Altitude Azimuth Distance (km) Brightness Sun altitude
Rises 05:54:28 0° 12° (NNE) 2,654 ? -6.3°
Reaches altitude 10° 05:56:35 10° 9° (N) 1,764 ? -6.0°
Maximum altitude 06:00:21 62° 289° (WNW) 595 ? -5.5°
Drops below altitude 10° 06:04:05 10° 209° (SSW) 1,760 ? -5.0°
Sets 06:06:12 0° 206° (SSW) 2,647 ? -4.7°
